Weather in Lyantorskiy

Russia / Khanty-Mansi Autonomous Okrug — Yugra     61°27′43″N   71°41′36″E
temp.,
°C
wind,
m/s
gust,
m/s
humid.,
%
clouds,
%
prec.,
mm/h
press.,
hPa
HPBL,
m
23 october, sat
sat2323:000ssw51195100 0.1 997736
02:000s51196100 0.3 994536
05:00+1s61396100 0.8 991506
08:00+2ssw61398100 2.1 989669
11:00+3sw51399100 4.7 988538
14:00+6w71595100 0.2 989911
17:00+6wsw51289100 0.2 992499
20:00+5wsw51096100 1.1 992593
24 october, sun
sun2423:00+5w6138174 3.2 994758
02:00+3wsw7148799 0.1 996764
05:00+4wsw81579100 0.1 997982
08:00+3w9157916 0.2 9981285
11:00+2w7117627 0.2 1002974
14:00+2w610715 0.0 10061034
17:000wsw48805 0.0 1008220
20:00−1wsw2584100 0.0 1008124
25 october, mon
mon2523:00−1wsw1180100 0.0 100710
02:00−1ene2278100 0.0 100530
05:00−1ne2478100 0.0 100497
08:00−1n23817 0.0 100559
11:00+1nw22655 0.0 1007395
14:00+2wsw346360 0.0 1009638
17:00−1ssw2377100 0.0 101048
20:00+1s3889100 0.0 1009284
26 october, tue
tue2623:00+1s41098100 0.8 1007598
02:00+1s51198100 1.4 1004669
05:00+1ssw51198100 2.5 1001651
08:000wnw6998100 2.4 1000572
11:00−1wnw71193100 3.0 1001715
14:00−2nw81291100 1.1 10021040
17:00−3nw81376100 1.3 1005930
20:00−3wnw613765 0.0 1007736
27 october, wed
wed2723:00−4w613825 0.0 1009662
02:00−4w613795 0.0 1011661
05:00−4w613818 0.0 1013638
08:00−5w612825 0.0 1015628
11:00−3w59765 0.0 1018711
14:00−2w48725 0.0 1019728
17:00−4sw3781100 0.0 1020212
20:00−4ssw41076100 0.0 1019305